Showing default

O3B FM17, 44114

Orbit data source: Space-Track

O3B FM17, 44114 is a payload satellite owned by O3B SES (JE) that was launched on Thu, 04 Apr 2019 UTC via a SOYUZ-ST-B launch vehicle from the French Guiana (FRGUI). Payload-class satellites include a variety of spacecraft equipped with specific instruments for various scientific and technological missions. These include communications satellites like Starlink; space stations such as the ISS; scientific satellites like the Hubble; Earth observation satellites from companies like Planet Labs, Umbra, and HawkEye 360; GPS; miniature CubeSats for education and research; and military/defense satellites.

Loading next visibility...
Identifier
44114, 2019-020C
Orbit
Active
Country
Flag of UnknownUnknown / O3B
Related business
Manufacturer
Thales Alenia
Mission
Operational Commercial Communications
Bus & Motor
PRISMA?, LS-400 AOCS?
Mass
700 kg wet, ~500 kg dry
Launch date (UTC)
2019-04-04 (7 years ago)
Launch vehicle
SOYUZ-ST-B
Launch site
French Guiana (FRGUI)
Object type
Payload
Rocket body
Debris
Shape & HBR
Trap Box + 2 Pan, 6.0 m
Radar Cross Section
21.980 m², Large (>1 m²)

Expand to show TLE details & history
Last TLE update: 14 hours ago

TLE from 14 hours ago
0 O3B FM17
1 44114U 19020C   25292.85075100 -.00000025  00000-0  00000+0 0  9999
2 44114   0.0627 343.5293 0003598 238.4605 137.9878  5.00115223119501
Epoch: 2025-10-19T20:25Z
TLE epoch observation values (Epoch: 2025-10-19T20:25:04.886Z)
Latitude
0.02148°
Longitude
25.16825°
Altitude
8,068.241 km
Speed
5.253 km/s
True Right ascension
00h 00m 00s
True Declination
0° 01' 17"
Sunlit
Object was in daylight at epoch
Visualization orbit readout
Latitude
Unknown
Longitude
Unknown
Altitude
Unknown
Speed
Unknown
Apparent Right ascension
Unknown
Apparent Declination
Unknown
Sunlit
N/A
Visualization observer readout
Local Sidereal Time
05:37:10
Azimuth
Unknown
Elevation
Unknown
Doppler factor
Unknown
Orbital elements
Apogee altitude
8,074.152 km
Perigee altitude
8,063.756 km
Semi-major axis
14,447.091 km
Eccentricity
0.00036
Inclination
0.0627°
RAAN
343.5293°
Arg. of periapsis
238.4605°
True anomaly
138.01539°
Mean anomaly
137.9878°
Eccentric anomaly
138.00159°
Mean motion
1.24989 °/min
Orbital period
288.02 mins
BSTAR
0
Loading maneuver chart data...
Computing Atmospheric mass density...
Loading historical data...
Loading historical data...
Loading historical data...
Loading historical data...
Loading historical data...
Loading historical data...
Loading historical data...
Other satellites on launch #20 in the year 2019 (2019-04-04 UTC)

Documentation

Showing up to 5 results
|